SCP
0 0 0 0 0 0 0 0 0 0 0 0 0 0 0 0 0 0 0 0 0 0 0 0 0 0 0 0 0 0 0 0 0 0 0 0 0 0 0 0 0 0 0 0 0 0 0 0 0
0 0 0 0 0 0 0 0 0 0 0 0 0 0 0 0 0 0 0 0 0 0 0 0 0 0 0 0 0 0 0 0 0 0 0 0 0 0 0 0 0 0 0 0 0 0 0 0 0
0 0 0 0 0 0 0 0 0 0 0 0 0 0 0 0 0 0 0 0 0 0 0 0 0 0 0 0 0 0 0 0 0 0 0 0 0 0 0 0 0 0 0 0 0 0 0 0 0
0 0 0 0 0 0 0 0 0 0 0 0 0 0 0 0 0 0 0 0 0 0 0 0 0 0 0 0 0 0 0 0 0 0 0 0 0 0 0 0 0 0 0 0 0 0 0 0 0
0 0 0 0 0 0 0 0 0 0 0 0 0 0 0 0 0 0 0 0 0 0 0 0 0 0 0 0 0 0 0 0 0 0 0 0 0 0 0 0 0 0 0 0 0 0 0 0 0
0 0 0 0 0 0 0 0 0 0 0 0 0 0 0 0 0 0 0 0 0 0 0 0 0 0 0 0 0 0 0 0 0 0 0 0 0 0 0 0 0 0 0 0 0 0 0 0 0
0 0 0 0 0 0 0 0 0 0 0 0 0 0 0 0 0 0 0 0 0 0 0 0 0 0 0 0 0 0 0 0 0 0 0 0 0 0 0 0 0 0 0 0 0 0 0 0 0
0 0 0 0 0 0 0 0 0 0 0 0 0 0 0 0 0 0 0 0 0 0 0 0 0 0 0 0 0 0 0 0 0 0 0 0 0 0 0 0 0 0 0 0 0 0 0 0 0
0 0 0 0 0 0 0 0 0 0 0 0 0 0 0 0 0 0 0 0 0 0 0 0 0 0 0 0 0 0 0 0 0 0 0 0 0 0 0 0 0 0 0 0 0 0 0 0 0
0 0 0 0 0 0 0 0 0 0 0 0 0 0 0 0 0 0 0 0 0 0 0 0 0 0 0 0 0 0 0 0 0 0 0 0 0 0 0 0 0 0 0 0 0 0 0 0 0
0 0 0 0 0 0 0 0 0 0 0 0 0 0 0 0 0 0 0 0 0 0 0 0 0 0 0 0 0 0 0 0 0 0 0 0 0 0 0 0 0 0 0 0 0 0 0 0 0
0 0 0 0 0 0 0 0 0 0 0 0 0 0 0 0 0 0 0 0 0 0 0 0 0 0 0 0 0 0 0 0 0 0 0 0 0 0 0 0 0 0 0 0 0 0 0 0 0
0 0 0 0 0 0 0 0 0 0 0 0 0 0 0 0 0 0 0 0 0 0 0 0 0 0 0 0 0 0 0 0 0 0 0 0 0 0 0 0 0 0 0 0 0 0 0 0 0
0 0 0 0 0 0 0 0 0 0 0 0 0 0 0 0 0 0 0 0 0 0 0 0 0 0 0 0 0 0 0 0 0 0 0 0 0 0 0 0 0 0 0 0 0 0 0 0 0
0 0 0 0 0 0 0 0 0 0 0 0 0 0 0 0 0 0 0 0 0 0 0 0 0 0 0 0 0 0 0 0 0 0 0 0 0 0 0 0 0 0 0 0 0 0 0 0 0
0 0 0 0 0 0 0 0 0 0 0 0 0 0 0 0 0 0 0 0 0 0 0 0 0 0 0 0 0 0 0 0 0 0 0 0 0 0 0 0 0 0 0 0 0 0 0 0 0
0 0 0 0 0 0 0 0 0 0 0 0 0 0 0 0 0 0 0 0 0 0 0 0 0 0 0 0 0 0 0 0 0 0 0 0 0 0 0 0 0 0 0 0 0 0 0 0 0
0 0 0 0 0 0 0 0 0 0 0 0 0 0 0 0 0 0 0 0 0 0 0 0 0 0 0 0 0 0 0 0 0 0 0 0 0 0 0 0 0 0 0 0 0 0 0 0 0
0 0 0 0 0 0 0 0 0 0 0 0 0 0 0 0 0 0 0 0 0 0 0 0 0 0 0 0 0 0 0 0 0 0 0 0 0 0 0 0 0 0 0 0 0 0 0 0 0
0 0 0 0 0 0 0 0 0 0 -0 0 0 0 0 0 0 0 0 0 0 0 0 0 0 0 0 0 0 0 0 0 0 0 0 0 0 0 0 0 0 0 0 0 0 0 0 0 0
0 0 0 0 0 0 0 0 0 -0 -0 0 0 0 0 0 0 0 0 0 0 0 0 0 0 0 0 0 0 0 0 0 0 0 0 0 -0 0 0 0 0 0 0 0 0 0 0 0 0
0 0 0 0 0 0 0 0 0 -0 -0 0 0 0 0 0 0 0 0 0 0 0 0 0 0 0 0 0 0 0 0 0 0 0 0 0 -0 0 0 0 0 0 0 0 0 0 0 0 0
0 0 0 0 0 0 0 0 -0 -0 -0 -0 0 0 0 0 0 0 0 0 0 0 0 0 0 0 0 0 0 0 0 0 0 0 0 0 0 0 0 0 0 0 0 0 0 0 0 0 0
0 0 0 0 0 0 0 0 -0 -0 -0 -0 -0 0 0 0 0 0 0 0 0 0 0 0 0 0 0 0 0 0 0 0 0 0 0 0 0 0 0 0 0 0 0 0 0 0 0 0 0
0 0 0 0 0 0 0 0 0 -0 -0 0 0 0 0 0 0 0 0 0 0 0 0 0 0 0 0 0 0 0 0 0 0 0 0 0 0 0 0 0 0 0 0 0 0 0 0 0 0
0 0 0 0 0 0 0 0 0 0 0 0 -0 -0 0 0 0 0 0 0 0 0 0 0 0 0 0 0 0 0 0 0 0 0 0 0 0 0 0 0 0 0 0 0 0 0 0 0 0
0 0 0 0 0 0 0 0 0 0 0 0 -0 -0 0 0 0 0 0 0 0 0 0 0 0 0 0 0 0 0 0 0 0 0 0 0 0 0 0 0 0 0 0 0 0 0 0 0 0
0 0 0 0 0 0 0 0 0 0 0 0 0 -0 0 0 0 0 0 0 0 0 0 0 0 0 0 0 0 0 0 0 0 0 0 0 0 0 0 0 0 0 0 0 0 0 0 0 0
0 0 0 0 0 0 0 0 0 0 0 0 0 0 0 0 0 0 -0 0 0 0 0 0 0 0 0 0 0 0 0 0 0 0 0 0 0 0 0 0 0 0 0 0 0 0 0 0 0
0 0 0 0 0 0 0 0 0 0 -0 -0 0 0 0 0 -0 -0 -0 0 0 0 0 0 0 0 0 0 0 0 0 0 0 0 0 0 0 0 0 0 0 0 0 0 0 0 0 0 0
Wind_Speed
8 5 2 4 6 5 1 3 2 2 1 1 3 6 7 5 3 4 1 2 4 3 2 4 6 7 7 7 7 7 8 8 8 8 8 7 7 8 8 7 6 5 5 6 6 7 6 7 7
3 3 5 5 6 2 3 3 1 3 2 2 4 5 6 5 3 4 1 1 4 4 3 4 6 7 7 7 8 8 8 8 8 8 8 7 7 8 7 7 6 5 5 5 5 5 6 6 6
3 2 4 5 4 5 4 3 3 2 2 2 4 5 4 3 2 2 1 3 5 4 3 4 7 7 8 8 8 8 8 8 8 7 7 7 7 8 7 7 7 6 5 5 5 4 5 5 6
3 5 5 4 2 3 4 3 1 1 3 4 4 5 3 3 1 2 3 5 6 4 4 4 7 8 8 8 8 8 8 7 7 7 7 7 7 7 7 7 7 6 6 5 5 4 4 4 5
4 5 4 1 2 2 2 3 1 2 2 3 3 5 2 3 3 5 5 6 6 4 4 4 8 8 8 8 9 9 8 8 7 7 7 7 6 6 6 6 6 5 5 5 5 4 4 4 4
4 5 4 3 3 2 2 1 1 2 1 2 3 4 2 2 4 4 5 6 5 5 4 4 7 8 8 8 8 8 8 8 7 7 7 7 7 6 6 5 5 5 5 4 4 4 4 4 4
4 4 3 4 3 2 2 1 1 1 1 2 1 5 1 1 2 4 5 5 5 5 5 4 4 5 7 8 8 8 7 7 7 7 7 7 7 6 5 5 5 5 4 4 4 4 3 3 3
4 4 2 2 3 3 1 1 2 1 1 2 3 5 3 2 2 5 6 6 6 5 5 4 5 4 3 4 7 7 7 8 8 8 8 8 7 6 6 5 5 4 4 4 4 4 4 3 3
3 4 2 3 4 3 1 2 3 2 3 3 3 1 2 5 5 6 6 5 5 5 4 4 4 4 3 3 5 5 6 7 7 6 8 7 4 4 4 5 5 5 4 4 4 5 5 4 3
4 3 4 2 3 2 1 2 1 3 3 2 3 4 5 6 6 6 5 4 4 3 3 3 3 3 3 3 3 2 3 4 4 4 4 3 3 3 4 6 6 5 5 5 5 5 5 4 2
3 4 2 1 0 1 1 2 2 2 1 2 2 3 5 5 5 5 4 3 2 2 2 2 2 2 2 2 2 2 2 2 3 4 4 3 3 3 3 3 4 4 4 3 4 3 2 2 2
2 0 1 1 1 1 0 0 2 0 3 2 3 5 5 5 4 4 3 2 2 2 2 2 2 2 2 2 2 2 2 2 2 3 3 3 2 3 3 2 2 2 2 2 2 1 2 2 2
1 0 1 1 3 1 2 1 1 2 1 2 4 4 5 4 3 2 2 2 2 2 2 2 2 2 2 2 2 2 2 2 2 2 2 3 2 2 2 2 2 2 2 2 2 1 2 2 2
1 1 1 1 1 1 1 2 1 3 2 4 4 3 2 3 3 2 2 2 2 2 2 2 3 3 3 3 2 2 2 2 2 2 2 2 2 1 2 2 2 2 2 2 1 1 1 1 1
2 2 2 1 1 1 2 3 3 3 3 3 2 2 2 2 3 3 2 2 2 2 2 2 3 3 3 3 3 2 2 2 2 2 2 2 2 2 2 1 2 2 2 2 1 1 1 1 1
2 2 1 3 1 1 2 6 4 3 4 3 2 2 2 2 2 2 2 3 3 3 3 3 3 3 3 3 3 2 2 2 2 2 2 3 3 2 1 1 2 2 2 1 1 1 2 2 2
2 0 3 3 1 0 2 6 4 2 4 3 2 2 3 2 1 1 2 3 3 2 2 3 3 3 3 3 3 2 2 3 2 2 2 3 3 3 2 1 2 2 1 1 1 1 1 1 2
3 2 3 4 3 0 3 6 4 2 4 3 3 2 3 2 1 1 2 2 2 2 2 3 3 3 2 2 2 2 3 2 2 2 2 4 3 3 3 2 2 2 2 1 1 1 1 1 1
2 2 4 5 2 1 5 7 6 3 3 3 3 3 3 2 1 1 2 2 3 3 3 3 3 2 2 1 1 1 2 2 2 2 3 3 3 3 3 2 2 2 1 1 1 0 1 1 1
1 1 3 4 3 2 4 6 5 3 3 4 5 4 3 2 1 1 1 2 2 2 2 2 2 2 2 1 1 1 1 1 1 2 3 3 3 3 3 2 2 2 1 1 1 1 0 1 1
1 3 3 3 5 3 2 5 3 1 1 2 3 3 3 3 3 2 1 1 1 1 1 1 1 2 2 2 1 2 2 2 2 3 2 3 3 3 3 3 2 2 1 0 0 0 1 0 1
3 3 2 2 1 3 0 4 5 2 1 2 2 2 2 1 2 2 1 1 0 0 0 1 1 1 1 1 1 1 1 1 2 2 2 3 2 2 2 2 2 2 1 0 0 0 0 1 1
3 2 2 2 1 2 2 3 7 1 3 4 4 3 3 2 2 2 1 1 1 0 0 1 1 1 1 1 1 1 1 1 1 2 2 2 3 3 2 2 2 2 1 1 0 1 0 0 0
0 3 3 3 3 3 4 4 7 4 5 4 4 4 3 2 2 1 1 1 0 1 1 1 1 1 1 1 1 1 1 1 2 2 2 2 2 2 2 2 2 2 2 1 1 0 1 1 1
3 4 3 4 2 6 2 3 8 4 3 4 5 4 4 3 2 2 1 1 0 1 1 1 1 1 1 1 1 1 1 1 1 2 2 2 2 2 3 2 2 2 1 1 1 1 1 1 1
2 5 5 4 4 5 2 5 6 3 2 1 3 3 3 2 2 1 1 1 1 0 1 1 1 2 2 1 2 2 1 1 1 2 2 3 2 2 3 3 2 2 1 1 1 1 1 1 1
2 2 3 4 1 3 5 5 6 1 1 2 1 1 1 1 1 1 1 1 1 1 1 1 1 2 2 2 2 2 2 2 2 2 2 3 3 3 3 3 2 2 1 1 0 1 1 1 1
2 4 3 3 2 4 5 5 5 4 3 2 2 2 2 1 1 1 1 1 1 1 1 1 1 2 2 2 2 2 2 2 2 2 3 3 4 3 3 3 2 1 1 1 1 1 1 1 1
2 2 2 2 3 3 4 7 4 5 4 4 4 3 3 2 2 2 1 1 1 1 1 1 2 2 2 2 2 2 2 3 2 2 3 3 3 3 3 2 2 2 1 1 1 1 1 1 1
2 4 5 3 3 3 3 8 3 2 2 3 3 2 2 2 2 1 1 1 1 1 2 2 2 2 3 3 3 3 2 2 3 3 4 3 3 3 3 2 2 2 2 2 1 2 2 2 2
Wind_Direction
333 335 53 57 58 53 236 265 258 320 25 31 62 87 98 87 103 132 121 69 85 96 72 77 73 72 67 65 68 68 66 64 62 60 60 64 65 64 62 67 73 76 78 81 84 86 91 94 95
335 353 55 61 89 111 264 263 250 259 195 134 65 77 77 69 64 91 60 52 93 96 71 73 73 74 68 66 67 65 64 62 62 61 60 61 62 63 62 63 65 70 76 79 81 82 88 93 97
332 47 79 78 116 177 214 240 209 301 11 93 72 55 82 90 83 103 137 113 95 82 62 69 70 72 71 69 65 61 60 59 61 63 63 60 59 58 56 56 57 58 61 70 80 84 86 93 99
51 48 57 82 182 217 204 238 230 354 14 37 98 75 64 28 109 132 114 103 93 75 57 65 69 70 68 67 64 58 55 57 59 60 62 61 58 57 54 51 50 53 56 59 63 69 82 87 99
62 78 74 84 225 240 237 262 320 26 8 7 84 102 69 1 62 90 92 90 94 82 64 62 64 67 64 64 63 58 54 54 55 56 58 59 59 54 54 53 50 53 56 56 55 57 64 78 91
60 74 104 192 223 247 273 297 39 45 29 11 74 106 110 11 69 85 88 86 91 90 73 65 63 64 62 60 59 56 54 51 50 52 53 53 52 52 53 53 51 55 59 58 56 55 56 67 85
106 109 160 182 198 245 255 20 58 77 23 341 97 111 132 2 71 93 85 84 80 79 70 54 52 55 57 54 55 55 52 50 47 45 46 46 46 44 45 47 46 52 54 55 54 51 58 58 73
127 112 144 188 188 229 279 41 56 70 3 357 67 128 175 206 119 89 77 71 70 65 61 52 44 41 43 50 50 52 50 48 45 40 39 36 35 34 34 33 36 43 49 48 48 46 49 48 50
92 89 190 205 188 209 28 53 18 37 74 37 36 113 160 130 103 84 74 60 58 55 49 53 51 43 38 52 48 45 47 42 39 36 33 28 18 15 17 19 28 37 41 42 42 38 31 29 38
90 150 214 224 185 162 36 43 51 41 26 28 33 42 83 104 106 98 91 80 68 52 40 46 52 44 42 47 53 40 39 34 29 27 23 18 15 12 16 16 20 21 22 27 32 26 23 23 10
116 172 188 303 160 115 58 0 8 115 300 225 171 139 122 115 111 108 103 100 95 86 55 43 51 45 48 46 52 44 34 32 27 26 18 21 18 13 11 7 4 3 9 8 14 14 9 15 10
101 335 167 285 359 23 354 133 20 349 232 187 152 144 133 126 129 128 123 104 83 72 48 41 50 49 50 57 56 56 44 36 30 16 19 28 20 14 5 2 357 358 350 353 359 8 8 14 13
147 212 11 41 47 52 67 57 144 264 219 106 107 116 131 136 135 133 124 112 83 68 41 29 43 45 45 57 53 55 47 42 23 18 16 31 30 8 358 350 354 351 348 347 347 2 13 10 3
150 108 330 341 350 334 134 266 157 243 147 105 107 126 133 140 137 105 80 76 71 64 49 42 46 43 48 48 50 54 45 34 31 23 9 21 30 11 356 353 350 342 338 336 340 354 4 355 358
78 46 347 294 252 224 97 314 228 211 134 124 142 149 117 114 114 112 109 96 88 74 57 52 58 47 49 43 41 46 39 32 29 18 12 15 18 14 5 350 348 332 330 340 4 13 22 14 10
45 51 309 284 223 194 137 255 251 194 139 162 166 145 123 107 113 111 96 84 74 65 54 43 45 42 41 40 36 38 35 31 21 14 12 17 15 11 16 6 346 332 339 359 7 27 30 9 3
35 247 255 281 240 114 188 251 254 201 157 170 173 164 142 125 105 105 95 91 84 74 60 47 43 46 41 39 33 33 38 36 16 15 16 11 15 15 14 11 347 342 352 9 17 24 31 15 358
221 235 251 253 268 250 249 263 263 219 186 187 188 180 160 151 186 158 111 93 85 75 61 48 40 38 44 48 39 28 29 25 13 6 13 9 6 16 14 8 3 2 6 13 27 36 26 11 355
194 217 265 268 272 266 255 266 259 241 200 196 197 189 178 192 180 124 105 92 79 61 56 48 41 25 34 34 26 21 3 354 354 355 10 11 7 9 18 9 7 3 8 2 12 51 49 10 12
156 239 277 294 318 293 273 276 264 236 211 204 196 195 188 166 129 107 104 82 78 65 49 48 44 33 38 24 346 335 319 318 332 348 1 5 8 6 9 7 356 351 4 18 21 31 53 345 10
266 213 239 273 318 319 308 300 282 263 173 171 181 181 184 173 166 151 109 84 70 50 36 31 18 27 27 30 27 16 17 2 8 360 352 350 4 7 359 348 344 345 353 299 331 35 103 252 330
248 243 241 269 325 294 207 279 277 245 250 225 209 187 184 173 148 145 123 105 98 287 343 26 21 22 14 29 52 48 27 356 323 315 323 331 350 351 352 347 341 338 338 321 274 1 227 164 281
222 261 267 263 208 298 278 233 278 252 247 243 227 207 198 181 156 155 157 173 189 283 348 352 25 16 12 16 40 67 11 330 325 331 333 332 339 337 339 341 333 326 321 304 321 343 349 196 224
126 38 29 44 78 268 236 196 272 236 230 233 219 208 201 187 172 159 146 137 75 19 8 10 30 352 359 7 11 28 0 338 345 339 330 322 320 321 329 334 332 322 313 294 262 249 239 268 284
69 84 31 356 345 254 248 210 252 262 248 205 198 199 201 187 175 171 144 117 40 10 349 351 8 335 332 346 348 334 309 288 283 299 305 305 306 309 305 313 312 302 291 296 314 328 275 265 248
182 138 154 203 238 282 295 235 257 282 274 161 160 168 168 176 180 189 190 186 195 284 321 328 327 323 324 328 318 313 298 278 278 281 284 289 290 288 289 290 294 288 290 306 313 297 276 279 274
141 167 168 138 204 272 269 282 297 319 25 67 108 134 166 190 203 206 203 199 212 255 278 286 304 321 320 312 311 305 301 300 290 294 298 295 295 300 300 287 274 274 266 255 258 289 289 282 278
135 141 104 123 178 266 285 267 250 248 244 240 224 220 250 252 235 240 235 247 252 245 265 294 299 299 307 304 296 310 300 296 290 292 296 297 298 298 295 288 268 267 274 269 239 258 288 309 297
136 131 129 142 174 186 271 270 233 214 215 209 222 222 220 232 233 226 244 256 268 274 269 288 307 316 310 302 298 301 299 303 305 294 289 290 290 294 290 282 265 255 254 252 241 257 260 264 282
184 177 153 166 235 203 229 268 275 221 230 197 218 240 243 237 250 255 247 263 277 293 298 295 297 303 299 296 297 294 298 307 306 301 300 297 293 294 285 282 271 259 248 241 235 250 258 248 254